Location: Ferchesar
(52.6477°N, 12.4298°E)
Time: 18:49:29
(UTC+01:00)

Transit 4A - Pass Details

Date: 15 December 2021
Orbit: 864 x 980 km, 66.8° (Epoch: 16 January)

Event Time Altitude Azimuth Distance (km) Brightness Sun altitude
Rises 17:30:58 0° 217° (SW) 3,474 11.9 -13.3°
Reaches altitude 10° 17:33:25 10° 217° (SW) 2,552 11.1 -13.7°
Maximum altitude 17:39:21 90° 286° (WNW) 917 7.9 -14.5°
Enters shadow 17:44:17 17° 39° (NE) 2,190 9.4 -15.2°
